Time,TemperatureF,DewpointF,PressureIn,WindDirection,WindDirectionDegrees,WindSpeedMPH,WindSpeedGustMPH,Humidity,HourlyPrecipIn,Conditions,Clouds,dailyrainin,SoftwareType,DateUTC
2013-03-06 00:02:00,60.0,56.0,30.11,ESE,119,0.0,1.0,86,0.00,,,0.00,,2013-03-06 05:02:00,
2013-03-06 00:12:00,60.0,56.0,30.11,ESE,119,0.0,1.0,86,0.00,,,0.00,,2013-03-06 05:12:00,
2013-03-06 00:22:00,61.0,57.0,30.10,ESE,116,2.0,5.0,87,0.00,,,0.00,,2013-03-06 05:22:00,
2013-03-06 00:32:00,61.0,57.0,30.09,ESE,123,3.0,5.0,87,0.00,,,0.00,,2013-03-06 05:32:00,
2013-03-06 00:42:00,61.0,57.0,30.09,ESE,123,3.0,5.0,87,0.00,,,0.00,,2013-03-06 05:42:00,
2013-03-06 00:52:00,63.0,58.0,30.09,SE,127,4.0,9.0,85,0.00,,,0.00,,2013-03-06 05:52:00,
2013-03-06 01:02:00,64.0,58.0,30.09,SE,134,3.0,5.0,82,0.00,,,0.00,,2013-03-06 06:02:00,
2013-03-06 01:11:00,64.0,58.0,30.09,SE,134,3.0,5.0,82,0.00,,,0.00,,2013-03-06 06:11:00,
2013-03-06 01:22:00,64.0,58.0,30.08,SSE,166,3.0,6.0,80,0.00,,,0.00,,2013-03-06 06:22:00,
2013-03-06 01:32:00,64.0,57.0,30.08,SSE,164,1.0,5.0,79,0.00,,,0.00,,2013-03-06 06:32:00,
2013-03-06 01:42:00,64.0,57.0,30.08,SSE,164,1.0,5.0,79,0.00,,,0.00,,2013-03-06 06:42:00,
2013-03-06 01:52:00,64.0,57.0,30.07,SSE,164,0.0,1.0,79,0.00,,,0.00,,2013-03-06 06:52:00,
2013-03-06 02:01:00,64.0,57.0,30.07,SSE,164,2.0,5.0,78,0.00,,,0.00,,2013-03-06 07:01:00,
2013-03-06 02:11:00,64.0,57.0,30.07,SSE,164,2.0,5.0,78,0.00,,,0.00,,2013-03-06 07:11:00,
2013-03-06 02:22:00,63.0,56.0,30.06,SSE,164,1.0,2.0,78,0.00,,,0.00,,2013-03-06 07:22:00,
2013-03-06 02:32:00,62.0,55.0,30.06,SSE,164,2.0,3.0,78,0.00,,,0.00,,2013-03-06 07:32:00,
2013-03-06 02:42:00,62.0,55.0,30.06,SSE,164,2.0,3.0,78,0.00,,,0.00,,2013-03-06 07:42:00,
2013-03-06 02:52:00,61.0,54.0,30.06,WSW,253,3.0,4.0,79,0.00,,,0.00,,2013-03-06 07:52:00,
2013-03-06 03:01:00,61.0,55.0,30.06,West,263,3.0,4.0,81,0.00,,,0.00,,2013-03-06 08:01:00,
2013-03-06 03:11:00,61.0,55.0,30.06,West,263,3.0,4.0,81,0.00,,,0.00,,2013-03-06 08:11:00,
2013-03-06 03:21:00,61.0,56.0,30.06,West,281,2.0,5.0,85,0.00,,,0.00,,2013-03-06 08:21:00,
2013-03-06 03:32:00,61.0,57.0,30.06,WNW,282,2.0,5.0,86,0.00,,,0.00,,2013-03-06 08:32:00,
2013-03-06 03:42:00,61.0,57.0,30.06,WNW,282,2.0,5.0,86,0.00,,,0.00,,2013-03-06 08:42:00,
2013-03-06 03:52:00,62.0,58.0,30.06,WNW,299,2.0,5.0,88,0.00,,,0.00,,2013-03-06 08:52:00,
2013-03-06 04:01:00,62.0,58.0,30.05,WNW,299,1.0,3.0,88,0.00,,,0.00,,2013-03-06 09:01:00,
2013-03-06 04:12:00,62.0,58.0,30.05,WNW,299,1.0,3.0,88,0.00,,,0.00,,2013-03-06 09:12:00,
2013-03-06 04:22:00,62.0,59.0,30.04,West,280,2.0,5.0,89,0.00,,,0.00,,2013-03-06 09:22:00,
2013-03-06 04:32:00,62.0,59.0,30.05,West,280,3.0,5.0,89,0.00,,,0.00,,2013-03-06 09:32:00,
2013-03-06 04:42:00,62.0,59.0,30.05,West,280,3.0,5.0,89,0.00,,,0.00,,2013-03-06 09:42:00,
2013-03-06 04:52:00,62.0,59.0,30.05,West,280,3.0,3.0,89,0.00,,,0.00,,2013-03-06 09:52:00,
2013-03-06 05:01:00,61.0,58.0,30.04,West,280,3.0,4.0,89,0.00,,,0.00,,2013-03-06 10:01:00,
2013-03-06 05:11:00,61.0,58.0,30.04,West,280,3.0,4.0,89,0.00,,,0.00,,2013-03-06 10:11:00,
2013-03-06 05:22:00,61.0,58.0,30.05,West,280,2.0,4.0,90,0.00,,,0.00,,2013-03-06 10:22:00,
2013-03-06 05:32:00,61.0,58.0,30.05,West,280,2.0,3.0,90,0.00,,,0.00,,2013-03-06 10:32:00,
2013-03-06 05:42:00,61.0,58.0,30.05,West,280,2.0,3.0,90,0.00,,,0.00,,2013-03-06 10:42:00,
2013-03-06 05:52:00,60.0,57.0,30.05,West,280,0.0,2.0,89,0.00,,,0.00,,2013-03-06 10:52:00,
2013-03-06 06:02:00,60.0,57.0,30.06,West,280,2.0,3.0,90,0.00,,,0.00,,2013-03-06 11:02:00,
2013-03-06 06:11:00,60.0,57.0,30.06,West,280,2.0,3.0,90,0.00,,,0.00,,2013-03-06 11:11:00,
2013-03-06 06:22:00,59.0,56.0,30.07,West,280,3.0,5.0,89,0.00,,,0.00,,2013-03-06 11:22:00,
2013-03-06 06:32:00,59.0,56.0,30.07,West,280,3.0,4.0,90,0.00,,,0.00,,2013-03-06 11:32:00,
2013-03-06 06:42:00,59.0,56.0,30.07,West,280,3.0,4.0,90,0.00,,,0.00,,2013-03-06 11:42:00,
2013-03-06 06:52:00,59.0,56.0,30.08,West,280,4.0,6.0,91,0.00,,,0.00,,2013-03-06 11:52:00,
2013-03-06 07:02:00,59.0,56.0,30.09,West,280,3.0,7.0,91,0.00,,,0.00,,2013-03-06 12:02:00,
2013-03-06 07:12:00,59.0,56.0,30.09,West,280,3.0,7.0,91,0.00,,,0.00,,2013-03-06 12:12:00,
2013-03-06 07:22:00,61.0,59.0,30.09,West,280,3.0,7.0,92,0.00,,,0.00,,2013-03-06 12:22:00,
2013-03-06 07:33:00,62.0,60.0,30.09,West,279,4.0,6.0,92,0.00,,,0.00,,2013-03-06 12:33:00,
2013-03-06 07:42:00,62.0,60.0,30.09,West,279,4.0,6.0,92,0.00,,,0.00,,2013-03-06 12:42:00,
2013-03-06 07:53:00,65.0,62.0,30.10,WSW,255,7.0,10.0,91,0.00,,,0.00,,2013-03-06 12:53:00,
2013-03-06 08:02:00,66.0,63.0,30.10,WSW,249,3.0,11.0,89,0.00,,,0.00,,2013-03-06 13:02:00,
2013-03-06 08:12:00,66.0,63.0,30.10,WSW,249,3.0,11.0,89,0.00,,,0.00,,2013-03-06 13:12:00,
2013-03-06 08:22:00,69.0,63.0,30.11,WSW,241,4.0,12.0,82,0.00,,,0.00,,2013-03-06 13:22:00,
2013-03-06 08:32:00,70.0,63.0,30.11,WSW,247,6.0,10.0,79,0.00,,,0.00,,2013-03-06 13:32:00,
2013-03-06 08:42:00,70.0,63.0,30.11,WSW,247,6.0,10.0,79,0.00,,,0.00,,2013-03-06 13:42:00,
2013-03-06 08:52:00,71.0,63.0,30.11,WSW,241,4.0,11.0,75,0.00,,,0.00,,2013-03-06 13:52:00,
2013-03-06 09:02:00,72.0,63.0,30.11,West,266,8.0,12.0,73,0.00,,,0.00,,2013-03-06 14:02:00,
2013-03-06 09:11:00,72.0,63.0,30.11,West,266,8.0,12.0,73,0.00,,,0.00,,2013-03-06 14:11:00,
2013-03-06 09:22:00,73.0,63.0,30.11,WSW,257,7.0,13.0,70,0.00,,,0.00,,2013-03-06 14:22:00,
2013-03-06 09:32:00,73.0,62.0,30.11,West,262,7.0,14.0,69,0.00,,,0.00,,2013-03-06 14:32:00,
2013-03-06 09:42:00,73.0,62.0,30.11,West,262,7.0,14.0,69,0.00,,,0.00,,2013-03-06 14:42:00,
2013-03-06 09:53:00,74.0,63.0,30.11,WSW,237,6.0,15.0,69,0.00,,,0.00,,2013-03-06 14:53:00,
2013-03-06 10:02:00,74.0,63.0,30.11,WSW,246,8.0,16.0,68,0.00,,,0.00,,2013-03-06 15:02:00,
2013-03-06 10:12:00,74.0,63.0,30.11,WSW,246,8.0,16.0,68,0.00,,,0.00,,2013-03-06 15:12:00,
2013-03-06 10:22:00,75.0,63.0,30.12,WSW,253,8.0,15.0,66,0.00,,,0.00,,2013-03-06 15:22:00,
2013-03-06 10:32:00,76.0,64.0,30.12,West,259,8.0,16.0,66,0.00,,,0.00,,2013-03-06 15:32:00,
2013-03-06 10:42:00,76.0,64.0,30.12,West,259,8.0,16.0,66,0.00,,,0.00,,2013-03-06 15:42:00,
2013-03-06 10:52:00,76.0,62.0,30.11,SW,228,7.0,14.0,63,0.00,,,0.00,,2013-03-06 15:52:00,
2013-03-06 11:02:00,77.0,62.0,30.11,South,189,9.0,13.0,59,0.00,,,0.00,,2013-03-06 16:02:00,
2013-03-06 11:12:00,77.0,62.0,30.11,South,189,9.0,13.0,59,0.00,,,0.00,,2013-03-06 16:12:00,
2013-03-06 11:21:00,78.0,62.0,30.11,West,259,10.0,15.0,58,0.00,,,0.00,,2013-03-06 16:21:00,
2013-03-06 11:32:00,78.0,62.0,30.12,WSW,241,8.0,16.0,58,0.00,,,0.00,,2013-03-06 16:32:00,
2013-03-06 11:42:00,78.0,62.0,30.12,WSW,241,8.0,16.0,58,0.00,,,0.00,,2013-03-06 16:42:00,
2013-03-06 11:52:00,79.0,62.0,30.11,West,259,7.0,15.0,57,0.00,,,0.00,,2013-03-06 16:52:00,
2013-03-06 12:01:00,79.0,62.0,30.11,West,268,11.0,18.0,57,0.00,,,0.00,,2013-03-06 17:01:00,
2013-03-06 12:11:00,79.0,62.0,30.11,West,268,11.0,18.0,57,0.00,,,0.00,,2013-03-06 17:11:00,
2013-03-06 12:22:00,79.0,62.0,30.09,WSW,253,10.0,17.0,56,0.00,,,0.00,,2013-03-06 17:22:00,
2013-03-06 12:32:00,79.0,62.0,30.09,West,266,10.0,21.0,56,0.00,,,0.00,,2013-03-06 17:32:00,
2013-03-06 12:42:00,79.0,62.0,30.09,West,266,10.0,21.0,56,0.00,,,0.00,,2013-03-06 17:42:00,
2013-03-06 12:53:00,79.0,63.0,30.09,West,263,9.0,18.0,58,0.00,,,0.00,,2013-03-06 17:53:00,
2013-03-06 13:02:00,79.0,63.0,30.08,SW,218,10.0,18.0,58,0.00,,,0.00,,2013-03-06 18:02:00,
2013-03-06 13:29:00,79.0,62.0,30.08,West,263,12.0,20.0,57,0.00,,,0.00,,2013-03-06 18:29:00,
2013-03-06 13:42:00,79.0,64.0,30.07,WSW,241,10.0,20.0,60,0.00,,,0.00,,2013-03-06 18:42:00,
2013-03-06 13:43:00,78.0,63.0,30.06,WSW,249,9.0,19.0,61,0.00,,,0.00,,2013-03-06 18:43:00,
2013-03-06 13:53:00,79.0,64.0,30.06,SW,219,10.0,23.0,60,0.00,,,0.00,,2013-03-06 18:53:00,
2013-03-06 14:02:00,78.0,63.0,30.06,WSW,249,9.0,19.0,61,0.00,,,0.00,,2013-03-06 19:02:00,
2013-03-06 14:11:00,78.0,63.0,30.06,WSW,249,9.0,19.0,61,0.00,,,0.00,,2013-03-06 19:11:00,
2013-03-06 14:22:00,78.0,63.0,30.06,WSW,249,9.0,19.0,61,0.00,,,0.00,,2013-03-06 19:22:00,
2013-03-06 14:32:00,78.0,63.0,30.06,WSW,249,9.0,19.0,61,0.00,,,0.00,,2013-03-06 19:32:00,